Showing default

COSMOS 2273, 23004

Orbit data source: Space-Track

COSMOS 2273, 23004 is a payload satellite owned by VKS (CIS) in LEO that was launched on Sat, 12 Feb 1994 UTC via a TSIKLON-3 launch vehicle from the Plesetsk Missile And Space Complex (PKMTR). Payload-class satellites include a variety of spacecraft equipped with specific instruments for various scientific and technological missions. These include communications satellites like Starlink; space stations such as the ISS; scientific satellites like the Hubble; Earth observation satellites from companies like Planet Labs, Umbra, and HawkEye 360; GPS; miniature CubeSats for education and research; and military/defense satellites.

Loading next visibility...
Identifier
23004, 1994-011F
Orbit
LEO
Country
Flag of CISCIS
Related business
Manufacturer
NPO PM
Mission
Defense Communications
Bus & Motor
STRELA-3, Unknown motor
Mass
225 kg wet, 225 kg dry
Launch date (UTC)
1994-02-12 (32 years ago)
Launch vehicle
TSIKLON-3
Launch site
Plesetsk Missile And Space Complex (PKMTR)
Object type
Payload
Rocket body
Debris
Shape & HBR
Cyl, 0.8 m
Radar Cross Section
1.257 m², Medium (>0.1 m² and < 1m²)

Expand to show TLE details & history
Last TLE update: 10 hours ago

TLE from 10 hours ago
0 COSMOS 2273
1 23004U 94011F   25304.73541986  .00000040  00000-0  16516-3 0  9997
2 23004  82.5706 101.0446 0004928 357.7078  12.6437 12.62911826461917
Epoch: 2025-10-31T17:39Z
TLE epoch observation values (Epoch: 2025-10-31T17:39:00.275Z)
Latitude
10.22597°
Longitude
157.35913°
Altitude
1,409.194 km
Speed
7.158 km/s
True Right ascension
06h 49m 32s
True Declination
10° 10' 16"
Sunlit
Object was in daylight at epoch
Visualization orbit readout
Latitude
Unknown
Longitude
Unknown
Altitude
Unknown
Speed
Unknown
Apparent Right ascension
Unknown
Apparent Declination
Unknown
Sunlit
N/A
Visualization observer readout
Local Sidereal Time
23:45:50
Azimuth
Unknown
Elevation
Unknown
Doppler factor
Unknown
Orbital elements
Apogee altitude
1,412.106 km
Perigee altitude
1,404.432 km
Semi-major axis
7,786.406 km
Eccentricity
0.00049
Inclination
82.5706°
RAAN
101.0446°
Arg. of periapsis
357.7078°
True anomaly
12.65607°
Mean anomaly
12.6437°
Eccentric anomaly
12.64988°
Mean motion
3.15891 °/min
Orbital period
113.96 mins
BSTAR
0.00016516
Loading maneuver chart data...
Computing Atmospheric mass density...
Loading historical data...
Loading historical data...
Loading historical data...
Loading historical data...
Loading historical data...
Loading historical data...
Loading historical data...

Documentation

Showing up to 5 results
|